Terug naar catalogus

WGS F2

USA 204

ActiefMilitairGEO
NORAD 34713·PAYLOAD·🇺🇸 United States

Gelanceerd Apr 4, 2009 vanaf Cape Canaveral Space Force Station

Loading…

TLE

VersSource: Space-Track

Epoch: Sep 14, 2026, 20:55 UTC

1 34713U 09017A   26257.87164718  .00000000  00000-0  00000-0 0  9999
2 34713   0.0187 153.3696 0000383 342.9979 228.7813  1.00271113 46519

Volg WGS F2 in realtime met AllMySat

Download on the App Store